This is the latest recevied weather packets stored in our database for station/object KF4KUL. If no packets are shown the sender has not sent any weather packets the latest 1 day(s).
| Time | Temp. | Humidity | Pressure | Rain* | Wind** | Luminosity | Snow |
|---|---|---|---|---|---|---|---|
| 1778068185 | 18.89° C | 91% | 1016 hPa | 0 mm | - | - | - |
| 1778067284 | 18.33° C | 91% | 1015.8 hPa | 0 mm | - | - | - |
| 1778064581 | 18.33° C | 91% | 1015.5 hPa | 0 mm | - | - | - |
| 1778057373 | 18.89° C | 90% | 1015.1 hPa | 0 mm | - | - | - |
| 1778054670 | 18.89° C | 89% | 1015.2 hPa | 0 mm | - | - | - |
| 1778052868 | 19.44° C | 89% | 1015.2 hPa | 0 mm | - | - | - |
| 1778051967 | 19.44° C | 89% | 1015.3 hPa | 0 mm | - | - | - |
| 1778051066 | 19.44° C | 88% | 1015.3 hPa | 0 mm | - | - | - |
| 1778048363 | 20° C | 87% | 1015.7 hPa | 0 mm | - | - | - |
| 1778047462 | 20° C | 87% | 1016 hPa | 0 mm | - | - | - |
| 1778045660 | 20.56° C | 86% | 1016.1 hPa | 0 mm | - | - | - |
| 1778044759 | 20.56° C | 86% | 1016 hPa | 0 mm | - | - | - |
| 1778042957 | 20.56° C | 85% | 1016.4 hPa | 0 mm | - | - | - |
| 1778042056 | 21.11° C | 84% | 1016.4 hPa | 0 mm | - | - | - |
| 1778040254 | 21.67° C | 84% | 1016.4 hPa | 0 mm | - | - | - |
| 1778039353 | 21.67° C | 85% | 1016.1 hPa | 0 mm | - | - | - |
| 1778038452 | 21.67° C | 86% | 1016.1 hPa | 0 mm | - | - | - |
| 1778037551 | 21.67° C | 85% | 1016.1 hPa | 0 mm | - | - | - |
| 1778036650 | 22.22° C | 85% | 1015.8 hPa | 0 mm | - | - | - |
| 1778034848 | 22.22° C | 85% | 1015.7 hPa | 0 mm | - | - | - |
| 1778033947 | 22.78° C | 83% | 1015.6 hPa | 0 mm | - | - | - |
| 1778033046 | 23.33° C | 81% | 1015.3 hPa | 0 mm | - | - | - |
| 1778032145 | 23.33° C | 80% | 1015.3 hPa | 0 mm | - | - | - |
| 1778031244 | 23.89° C | 79% | 1015.1 hPa | 0 mm | - | - | - |
| 1778030343 | 23.89° C | 78% | 1015 hPa | 0 mm | - | - | - |
* Rain latest hour (hover to see other rain measurements)
** Current wind speed in m/s (hover to see current wind gust speed)